Météo par heure à Jurkiszki

Ce jour, 20 Juin, Dimanche

Heure Température Précipitation Vent Pression Humidité
00:00 +20°C° 0 mm 3 m/s 748 mmHg 88%
01:00 +19°C° 0 mm 3 m/s 748 mmHg 90%
02:00 +19°C° 0 mm 3 m/s 748 mmHg 90%
03:00 +19°C° 0 mm 3 m/s 748 mmHg 89%
04:00 +18°C° 0 mm 3 m/s 748 mmHg 89%
05:00 +20°C° 0 mm 3 m/s 748 mmHg 84%
06:00 +22°C° 0 mm 4 m/s 748 mmHg 78%
07:00 +25°C° 0 mm 4 m/s 748 mmHg 73%
08:00 +26°C° 0 mm 4 m/s 748 mmHg 68%
09:00 +27°C° 0 mm 4 m/s 748 mmHg 64%
10:00 +28°C° 0 mm 4 m/s 748 mmHg 59%
11:00 +28°C° 0.3 mm 4 m/s 748 mmHg 60%
12:00 +29°C° 0.3 mm 4 m/s 748 mmHg 60%
13:00 +29°C° 0.3 mm 4 m/s 747 mmHg 61%
14:00 +29°C° 0 mm 4 m/s 747 mmHg 60%
15:00 +30°C° 0 mm 4 m/s 747 mmHg 60%
16:00 +30°C° 0 mm 4 m/s 746 mmHg 59%
17:00 +28°C° 0.1 mm 4 m/s 746 mmHg 65%
18:00 +27°C° 0.1 mm 3 m/s 746 mmHg 71%
19:00 +25°C° 0.1 mm 3 m/s 746 mmHg 77%
20:00 +24°C° 0 mm 3 m/s 746 mmHg 81%
21:00 +22°C° 0 mm 3 m/s 746 mmHg 84%
22:00 +21°C° 0 mm 3 m/s 746 mmHg 88%
23:00 +20°C° 0 mm 3 m/s 746 mmHg 90%

Demain, 21 Juin, Lundi

Heure Température Précipitation Vent Pression Humidité
00:00 +20°C° 0 mm 3 m/s 746 mmHg 91%
01:00 +20°C° 0 mm 3 m/s 745 mmHg 93%
02:00 +20°C° 0 mm 3 m/s 745 mmHg 93%
03:00 +20°C° 0 mm 3 m/s 745 mmHg 93%
04:00 +19°C° 0 mm 3 m/s 745 mmHg 93%
05:00 +21°C° 0 mm 3 m/s 745 mmHg 87%
06:00 +22°C° 0 mm 4 m/s 745 mmHg 80%
07:00 +25°C° 0 mm 4 m/s 745 mmHg 74%
08:00 +26°C° 0 mm 5 m/s 745 mmHg 68%
09:00 +27°C° 0 mm 5 m/s 745 mmHg 62%
10:00 +28°C° 0 mm 5 m/s 745 mmHg 56%
11:00 +29°C° 0 mm 5 m/s 745 mmHg 54%
12:00 +29°C° 0 mm 5 m/s 745 mmHg 52%
13:00 +30°C° 0 mm 5 m/s 744 mmHg 50%
14:00 +29°C° 0 mm 5 m/s 744 mmHg 54%
15:00 +29°C° 0 mm 4 m/s 744 mmHg 58%
16:00 +29°C° 0 mm 4 m/s 744 mmHg 61%
17:00 +27°C° 0.1 mm 4 m/s 743 mmHg 68%
18:00 +26°C° 0.1 mm 3 m/s 743 mmHg 74%
19:00 +24°C° 0.1 mm 3 m/s 743 mmHg 80%
20:00 +22°C° 0 mm 3 m/s 743 mmHg 83%
21:00 +21°C° 0 mm 3 m/s 743 mmHg 87%
22:00 +20°C° 0 mm 3 m/s 743 mmHg 90%
23:00 +20°C° 0 mm 3 m/s 743 mmHg 91%

Après-demain, 22 Juin, Mardi

Heure Température Précipitation Vent Pression Humidité
00:00 +19°C° 0 mm 3 m/s 743 mmHg 92%
01:00 +19°C° 0 mm 3 m/s 743 mmHg 93%
02:00 +19°C° 0 mm 3 m/s 743 mmHg 93%
03:00 +19°C° 0 mm 3 m/s 743 mmHg 93%
04:00 +19°C° 0 mm 3 m/s 743 mmHg 93%
05:00 +21°C° 0 mm 3 m/s 743 mmHg 87%
06:00 +22°C° 0 mm 4 m/s 743 mmHg 82%
07:00 +25°C° 0 mm 4 m/s 744 mmHg 76%
08:00 +26°C° 0.4 mm 4 m/s 744 mmHg 74%
09:00 +27°C° 0.4 mm 4 m/s 744 mmHg 72%
10:00 +28°C° 0.4 mm 4 m/s 744 mmHg 70%
11:00 +28°C° 0.9 mm 4 m/s 744 mmHg 72%
12:00 +27°C° 0.9 mm 3 m/s 744 mmHg 75%
13:00 +27°C° 0.9 mm 3 m/s 744 mmHg 77%
14:00 +26°C° 0.9 mm 3 m/s 745 mmHg 81%
15:00 +25°C° 0.9 mm 3 m/s 745 mmHg 85%
16:00 +24°C° 0.9 mm 3 m/s 745 mmHg 89%
17:00 +23°C° 0.5 mm 2 m/s 745 mmHg 91%
18:00 +21°C° 0.5 mm 2 m/s 745 mmHg 93%
19:00 +21°C° 0.5 mm 1 m/s 745 mmHg 95%
20:00 +20°C° 0.3 mm 2 m/s 746 mmHg 95%
21:00 +19°C° 0.3 mm 2 m/s 746 mmHg 96%
22:00 +18°C° 0.3 mm 2 m/s 746 mmHg 97%
23:00 +18°C° 0 mm 2 m/s 746 mmHg 97%

23 Juin, Mercredi

Heure Température Précipitation Vent Pression Humidité
00:00 +17°C° 0 mm 2 m/s 746 mmHg 97%
01:00 +16°C° 0 mm 2 m/s 746 mmHg 97%
02:00 +16°C° 0 mm 2 m/s 746 mmHg 96%
03:00 +16°C° 0 mm 2 m/s 746 mmHg 96%
04:00 +16°C° 0 mm 2 m/s 746 mmHg 96%
05:00 +18°C° 0 mm 1 m/s 747 mmHg 92%
06:00 +20°C° 0 mm 1 m/s 747 mmHg 88%
07:00 +22°C° 0 mm 1 m/s 747 mmHg 84%
08:00 +24°C° 0 mm 1 m/s 747 mmHg 79%
09:00 +25°C° 0 mm 2 m/s 747 mmHg 74%
10:00 +27°C° 0 mm 2 m/s 747 mmHg 68%
11:00 +28°C° 0.9 mm 2 m/s 747 mmHg 69%
12:00 +28°C° 0.9 mm 1 m/s 747 mmHg 70%
13:00 +29°C° 0.9 mm 1 m/s 747 mmHg 70%
14:00 +29°C° 0.6 mm 1 m/s 747 mmHg 70%
15:00 +29°C° 0.6 mm 1 m/s 747 mmHg 69%
16:00 +29°C° 0.6 mm 1 m/s 747 mmHg 68%
17:00 +28°C° 0.5 mm 1 m/s 747 mmHg 72%
18:00 +27°C° 0.5 mm 1 m/s 747 mmHg 77%
19:00 +26°C° 0.5 mm 1 m/s 746 mmHg 81%
20:00 +25°C° 0.6 mm 1 m/s 747 mmHg 84%
21:00 +24°C° 0.6 mm 1 m/s 747 mmHg 88%
22:00 +23°C° 0.6 mm 1 m/s 747 mmHg 91%
23:00 +22°C° 0.4 mm 1 m/s 747 mmHg 91%

24 Juin, Jeudi

Heure Température Précipitation Vent Pression Humidité
00:00 +21°C° 0.4 mm 2 m/s 747 mmHg 91%
01:00 +20°C° 0.4 mm 2 m/s 747 mmHg 91%
02:00 +20°C° 0 mm 2 m/s 747 mmHg 92%
03:00 +20°C° 0 mm 2 m/s 747 mmHg 92%
04:00 +19°C° 0 mm 2 m/s 747 mmHg 93%
05:00 +20°C° 0 mm 2 m/s 747 mmHg 91%
06:00 +21°C° 0 mm 3 m/s 747 mmHg 90%
07:00 +24°C° 0 mm 3 m/s 747 mmHg 88%
08:00 +25°C° 0 mm 3 m/s 748 mmHg 83%
09:00 +26°C° 0 mm 3 m/s 748 mmHg 77%
10:00 +27°C° 0 mm 3 m/s 748 mmHg 72%
11:00 +27°C° 0 mm 3 m/s 748 mmHg 68%
12:00 +28°C° 0 mm 3 m/s 748 mmHg 63%
13:00 +28°C° 0 mm 3 m/s 748 mmHg 59%
14:00 +28°C° 0 mm 3 m/s 748 mmHg 60%
15:00 +28°C° 0 mm 3 m/s 748 mmHg 60%
16:00 +28°C° 0 mm 3 m/s 748 mmHg 61%
17:00 +26°C° 0 mm 3 m/s 748 mmHg 69%
18:00 +24°C° 0 mm 3 m/s 748 mmHg 77%
19:00 +22°C° 0 mm 3 m/s 748 mmHg 85%
20:00 +20°C° 0 mm 3 m/s 748 mmHg 89%
21:00 +18°C° 0 mm 3 m/s 748 mmHg 92%
22:00 +17°C° 0 mm 2 m/s 748 mmHg 96%
23:00 +16°C° 0 mm 2 m/s 748 mmHg 95%

25 Juin, Vendredi

Heure Température Précipitation Vent Pression Humidité
00:00 +16°C° 0 mm 2 m/s 747 mmHg 95%
01:00 +15°C° 0 mm 2 m/s 747 mmHg 95%
02:00 +15°C° 0.1 mm 2 m/s 747 mmHg 95%
03:00 +15°C° 0.1 mm 1 m/s 747 mmHg 94%
04:00 +15°C° 0.1 mm 1 m/s 747 mmHg 94%
05:00 +16°C° 0.4 mm 2 m/s 746 mmHg 93%
06:00 +17°C° 0.4 mm 2 m/s 746 mmHg 92%
07:00 +18°C° 0.4 mm 3 m/s 746 mmHg 91%
08:00 +19°C° 0 mm 2 m/s 746 mmHg 87%
09:00 +21°C° 0 mm 2 m/s 746 mmHg 83%
10:00 +23°C° 0 mm 2 m/s 746 mmHg 78%
11:00 +24°C° 0.1 mm 2 m/s 746 mmHg 76%
12:00 +25°C° 0.1 mm 2 m/s 746 mmHg 73%
13:00 +26°C° 0.1 mm 2 m/s 745 mmHg 71%
14:00 +25°C° 0.4 mm 2 m/s 745 mmHg 74%
15:00 +25°C° 0.4 mm 3 m/s 745 mmHg 78%
16:00 +23°C° 0.4 mm 4 m/s 745 mmHg 81%
17:00 +21°C° 0.3 mm 5 m/s 746 mmHg 85%
18:00 +19°C° 0.3 mm 5 m/s 746 mmHg 88%
19:00 +16°C° 0.3 mm 5 m/s 746 mmHg 91%
20:00 +15°C° 0 mm 5 m/s 747 mmHg 91%
21:00 +15°C° 0 mm 5 m/s 747 mmHg 90%
22:00 +14°C° 0 mm 5 m/s 747 mmHg 90%
23:00 +13°C° 0 mm 4 m/s 748 mmHg 92%
Voir plus

Nous avons besoin de votre consentement

Meteoprog et ses fournisseurs de services peuvent stocker et accéder à des données personnelles telles que des cookies, des identifiants d'appareils ou d'autres technologies similaires sur votre appareil et traiter ces données pour personnaliser le contenu et les publicités, ainsi que pour fournir des fonctionnalités de médias sociaux et analyser le trafic.

  • Stocker et/ou accéder à des informations sur votre appareil

    Des cookies, des identifiants d'appareils ou d'autres informations peuvent être stockés ou accessibles sur votre appareil aux fins indiquées ci-dessus.

  • Annonces et contenus personnalisés, mesure des annonces et des contenus, connaissance de l'audience et développement de produits

    Les annonces et le contenu peuvent être personnalisés en fonction d'un profil. D'autres données peuvent être ajoutées pour mieux personnaliser les annonces et le contenu. Les performances des publicités et du contenu peuvent être mesurées. Il est possible d'obtenir des informations sur le public qui a vu les publicités et le contenu. Ces données peuvent être utilisées pour développer ou améliorer l'expérience de l'utilisateur, les systèmes et les logiciels.

En cliquant sur "J'accepte", vous autorisez l'utilisation de cookies, des identifiants d'appareils, des balises web ou d'autres technologies similaires. Vos paramètres peuvent être modifiés dans le navigateur de votre appareil.

Dans certains cas, des intérêts légitimes peuvent être invoqués plutôt qu'un consentement. Vous pouvez en savoir plus à ce sujet dans notre Politique de confidentialité et de cookies.